Regional Weather Roundup
Issued by NWS

Home | Current Version | Previous Version | Text Only | Print | Product List | Glossary Off
Versions: 1 2 3 4 5 6 7 8 9 10 11 12 13 14 15 16 17 18 19 20 21 22 23 24 25 26 27 28 29 30 31 32 33 34 35 36 37 38 39 40 41 42 43 44 45 46 47 48 49 50

000
ASUS45 KBOI 300310
RWRID

IDAHO REGIONAL WEATHER ROUNDUP
NATIONAL WEATHER SERVICE BOISE ID
900 PM MDT FRI JUL 29 2016

NOTE: "FAIR" INDICATES FEW OR NO CLOUDS BELOW 12000 FEET
WITH NO SIGNIFICANT WEATHER AND/OR OBSTRUCTIONS TO VISIBILITY

IDZ012-014-300400-
SOUTHWEST IDAHO


CITY           SKY/WX    TMP DP  RH WIND       PRES   REMARKS
BOISE          CLEAR     95  38  13 W3        29.80S HX  90
CALDWELL       CLEAR     94  46  19 CALM      29.77F HX  90
MOUNTAIN HOME  CLEAR     96  38  13 NW9       29.82S HX  91
$$

IDZ016-017-300400-
SOUTHCENTRAL IDAHO


CITY           SKY/WX    TMP DP  RH WIND       PRES   REMARKS
BURLEY         CLEAR     74  54  49 S7        29.90F
JEROME         CLEAR     86  47  25 S5        29.91S
TWIN FALLS     CLEAR     82  47  29 S6        29.92S
$$

IDZ019>023-300400-
SOUTHEAST IDAHO


CITY           SKY/WX    TMP DP  RH WIND       PRES   REMARKS
IDAHO FALLS    CLEAR     85  38  18 SE5       29.94F
POCATELLO      CLEAR     83  39  21 S12       29.93S
REXBURG        CLEAR     80  43  26 CALM      29.96F
$$

IDZ006-010-011-018-031-032-300400-
CENTRAL IDAHO MOUNTAINS


CITY           SKY/WX    TMP DP  RH WIND       PRES   REMARKS
MCCALL         CLEAR     84  38  19 N3        30.00F
HAILEY         CLEAR     79  36  21 W6        30.00R
STANLEY          N/A     75  32  20 VRB5      30.12S
SALMON         CLEAR     81  46  30 CALM      29.85R
CHALLIS        CLEAR     84  28  13 NW10      29.95R
$$

IDZ002-004-006-007-026-300400-
NORTHERN IDAHO


CITY           SKY/WX    TMP DP  RH WIND       PRES   REMARKS
LEWISTON       CLEAR     96  44  16 N3        29.74F HX  92
LOWELL           N/A     75  60  59 CALM      29.78R
COEUR D`ALENE  CLEAR     84  52  32 SE6       29.77F
MULLAN PASS    CLEAR     71  43  36 CALM      30.11F
$$



USA.gov is the U.S. government's official web portal to all federal, state and local government web resources and services.